TimePDT,TemperatureF,Dew PointF,Humidity,Sea Level PressureIn,VisibilityMPH,Wind Direction,Wind SpeedMPH,Gust SpeedMPH,PrecipitationIn,Events,Conditions,WindDirDegrees,DateUTC
12:53 AM,82.0,57.0,42,29.91,10.0,Calm,Calm,-,N/A,,Clear,0,2013-08-30 07:53:00
1:53 AM,81.0,57.0,44,29.89,10.0,Calm,Calm,-,N/A,,Clear,0,2013-08-30 08:53:00
2:53 AM,80.1,59.0,48,29.88,10.0,Calm,Calm,-,N/A,,Clear,0,2013-08-30 09:53:00
3:53 AM,80.1,61.0,52,29.88,10.0,Calm,Calm,-,N/A,,Clear,0,2013-08-30 10:53:00
4:53 AM,79.0,60.1,52,29.88,10.0,Calm,Calm,-,N/A,,Clear,0,2013-08-30 11:53:00
5:53 AM,80.1,61.0,52,29.89,9.0,Calm,Calm,-,N/A,,Clear,0,2013-08-30 12:53:00
6:53 AM,80.1,61.0,52,29.92,10.0,Calm,Calm,-,N/A,,Clear,0,2013-08-30 13:53:00
7:53 AM,82.0,62.1,51,29.94,10.0,SSE,3.5,-,N/A,,Clear,160,2013-08-30 14:53:00
8:53 AM,87.1,59.0,39,29.95,10.0,Calm,Calm,-,N/A,,Clear,0,2013-08-30 15:53:00
9:53 AM,90.0,59.0,35,29.96,10.0,Calm,Calm,-,N/A,,Clear,0,2013-08-30 16:53:00
10:53 AM,93.9,63.0,36,29.95,10.0,SSW,8.1,-,N/A,,Partly Cloudy,210,2013-08-30 17:53:00
11:53 AM,96.1,64.0,35,29.94,10.0,South,8.1,-,N/A,,Clear,190,2013-08-30 18:53:00
12:53 PM,95.0,64.0,36,29.94,10.0,SSW,8.1,17.3,N/A,,Clear,200,2013-08-30 19:53:00
1:53 PM,96.1,66.9,38,29.92,10.0,SSW,13.8,19.6,N/A,,Clear,210,2013-08-30 20:53:00
2:53 PM,93.9,66.9,41,29.91,10.0,SW,10.4,-,N/A,,Clear,220,2013-08-30 21:53:00
3:53 PM,93.9,66.9,41,29.90,10.0,SSW,10.4,-,N/A,,Clear,210,2013-08-30 22:53:00
4:53 PM,93.0,68.0,44,29.90,10.0,SSW,8.1,-,N/A,,Clear,210,2013-08-30 23:53:00
5:53 PM,91.9,69.1,47,29.90,10.0,SSW,9.2,-,N/A,,Clear,210,2013-08-31 00:53:00
6:53 PM,91.0,68.0,47,29.90,10.0,Calm,Calm,-,N/A,,Clear,0,2013-08-31 01:53:00
7:53 PM,88.0,66.0,48,29.91,10.0,Calm,Calm,-,N/A,,Clear,0,2013-08-31 02:53:00
8:53 PM,84.0,64.9,53,29.93,10.0,Calm,Calm,-,N/A,,Clear,0,2013-08-31 03:53:00
9:53 PM,82.9,64.9,54,29.94,10.0,Calm,Calm,-,N/A,,Clear,0,2013-08-31 04:53:00
10:53 PM,82.9,64.9,54,29.94,10.0,South,4.6,-,N/A,,Clear,170,2013-08-31 05:53:00
11:53 PM,82.0,61.0,49,29.94,10.0,Calm,Calm,-,N/A,,Clear,0,2013-08-31 06:53:00